|
Cosmos 2221 Rocket - Orbit
|
Coffee Creek Observatory;
03:45:31
| Home | Info | Passes |
|
View from above orbital plane
|
View from above satellite
|
Ground track
|
The orbit data is extracted from the following two-line orbital elements,
1 22237U 92080B 13168.22885443 .00000151 00000-0 17964-4 0 494
2 22237 082.5121 036.1521 0018545 302.0240 197.4850 14.77588702107639
| Epoch (UTC): | 17 June 2013 05:29:33 |
| Eccentricity: | 0.0018545 |
| inclination: | 82.5121° |
| perigee height: | 624 km |
| apogee height: | 650 km |
| right ascension of ascending node: | 36.1521° |
| argument of perigee: | 302.0240° |
| revolutions per day: | 14.77588702 |
| mean anomaly at epoch: | 197.4850° |
| orbit number at epoch: | 10763 |
The dashed part of the orbit path shows where the satellite is in the earth's shadow,
|
|